DW2781 Weather Reports


time (UTC)temp
C
wind
direction
speed
KPH
gust
KPH
rain 1hr
cm
rain 24hr
cm
rain mn
cm
humidity
%
barometer
mb
20260507044506 11 76 0.0 4.8 0.00 0.00 0.00 62 1019.1
20260507044007 11 75 1.6 4.8 0.00 0.00 0.00 62 1019.0
20260507043506 11 73 1.6 4.8 0.00 0.00 0.00 62 1019.0
20260507043027 11 65 1.6 6.4 0.00 0.00 0.00 62 1018.9
20260507042507 11 70 3.2 14.5 0.00 0.00 0.00 63 1018.7
20260507042005 11 75 4.8 14.5 0.00 0.00 0.00 63 1018.6
20260507041505 11 78 4.8 12.9 0.00 0.00 0.00 63 1017.9
20260507041006 11 84 3.2 8.0 0.00 0.00 0.00 63 1018.1
20260507040506 11 82 3.2 9.7 0.00 0.00 0.00 63 1018.3
20260507040006 11 80 4.8 12.9 0.00 0.00 0.00 62 1017.9
20260507035506 11 77 4.8 12.9 0.00 0.00 0.00 62 1017.7
20260507035006 11 61 3.2 6.4 0.00 0.00 0.00 62 1017.9
20260507034506 12 49 1.6 6.4 0.00 0.00 0.00 61 1018.1
20260507034006 12 40 0.0 1.6 0.00 0.00 0.00 61 1018.2
20260507033506 12 40 0.0 1.6 0.00 0.00 0.00 60 1018.3
20260507033006 12 40 0.0 4.8 0.00 0.00 0.00 60 1018.2
20260507032506 12 40 0.0 4.8 0.00 0.00 0.00 59 1018.1
20260507032006 12 0 0.0 0.0 0.00 0.00 0.00 59 1018.1
20260507031527 12 39 0.0 3.2 0.00 0.00 0.00 58 1018.0
20260507031006 12 39 0.0 3.2 0.00 0.00 0.00 58 1018.0
20260507030527 13 38 0.0 3.2 0.00 0.00 0.00 58 1017.8
20260507030006 13 38 1.6 4.8 0.00 0.00 0.00 58 1017.8
20260507025506 13 38 0.0 4.8 0.00 0.00 0.00 57 1017.7
20260507025027 13 38 1.6 4.8 0.00 0.00 0.00 56 1017.6
20260507024506 13 37 1.6 6.4 0.00 0.00 0.00 56 1017.6
20260507024006 13 36 1.6 6.4 0.00 0.00 0.00 55 1017.5
20260507023506 13 35 1.6 6.4 0.00 0.00 0.00 55 1017.4
20260507023027 13 36 3.2 6.4 0.00 0.00 0.00 55 1017.4
20260507022506 14 42 3.2 6.4 0.00 0.00 0.00 54 1017.3
20260507022027 14 46 3.2 8.0 0.00 0.00 0.00 54 1017.3
20260507021506 14 47 3.2 9.7 0.00 0.00 0.00 54 1017.2
20260507021006 14 48 3.2 9.7 0.00 0.00 0.00 53 1017.1
20260507020506 15 39 3.2 9.7 0.00 0.00 0.00 52 1017.1
20260507020027 15 40 4.8 9.7 0.00 0.00 0.00 53 1017.0
20260507015506 15 39 6.4 16.1 0.00 0.00 0.00 52 1016.9
20260507015006 15 38 8.0 16.1 0.00 0.00 0.00 51 1016.8
20260507014506 15 39 6.4 16.1 0.00 0.00 0.00 51 1016.7
20260507014006 15 42 6.4 16.1 0.00 0.00 0.00 50 1016.7
20260507013506 16 44 8.0 17.7 0.00 0.00 0.00 50 1016.6
20260507013005 16 51 8.0 17.7 0.00 0.00 0.00 49 1016.6
20260507012506 16 58 9.7 16.1 0.00 0.00 0.00 49 1016.5
20260507012006 16 46 9.7 20.9 0.00 0.00 0.00 49 1016.5
20260507011506 16 38 9.7 20.9 0.00 0.00 0.00 49 1016.5
20260507011006 16 42 9.7 22.5 0.00 0.00 0.00 48 1016.5
20260507010506 16 45 8.0 22.5 0.00 0.00 0.00 48 1016.4
20260507010005 16 49 9.7 20.9 0.00 0.00 0.00 48 1016.4
20260507005505 16 43 11.3 20.9 0.00 0.00 0.00 48 1016.4
20260507005006 17 30 12.9 24.1 0.00 0.00 0.00 48 1016.4
20260507004506 17 28 9.7 24.1 0.00 0.00 0.00 48 1016.4
20260507004006 17 39 6.4 16.1 0.00 0.00 0.00 48 1016.4
20260507003506 17 41 8.0 19.3 0.00 0.00 0.00 47 1016.3
20260507003005 17 35 11.3 22.5 0.00 0.00 0.00 47 1016.2
20260507002506 17 23 12.9 22.5 0.00 0.00 0.00 47 1016.2
20260507002006 17 15 12.9 24.1 0.00 0.00 0.00 47 1016.2
20260507001506 17 13 12.9 24.1 0.00 0.00 0.00 47 1016.2
20260507001006 18 16 14.5 24.1 0.00 0.00 0.00 46 1016.1
20260507000506 18 18 16.1 25.7 0.00 0.00 0.00 45 1016.0
20260507000006 18 19 14.5 25.7 0.00 0.00 0.00 44 1016.0
20260506235506 19 20 11.3 24.1 0.00 0.00 0.00 45 1015.9
20260506235006 19 22 11.3 24.1 0.00 0.00 0.00 44 1015.9
20260506234506 20 25 12.9 24.1 0.00 0.00 0.00 43 1015.8
20260506234006 20 22 11.3 20.9 0.00 0.00 0.00 44 1015.8
20260506233506 20 20 11.3 20.9 0.00 0.00 0.00 42 1015.8
20260506233006 21 25 11.3 20.9 0.00 0.00 0.00 41 1015.7
20260506232506 21 26 11.3 19.3 0.00 0.00 0.00 42 1015.6
20260506232027 21 22 12.9 20.9 0.00 0.00 0.00 41 1015.6
20260506231506 21 33 11.3 20.9 0.00 0.00 0.00 40 1015.6
20260506231006 21 50 9.7 20.9 0.00 0.00 0.00 39 1015.6
20260506230506 22 51 9.7 20.9 0.00 0.00 0.00 39 1015.5
20260506230027 22 54 8.0 19.3 0.00 0.00 0.00 41 1015.5
20260506225527 21 52 9.7 20.9 0.00 0.00 0.00 41 1015.5
20260506225006 21 48 11.3 24.1 0.00 0.00 0.00 42 1015.4
20260506224506 21 71 14.5 24.1 0.00 0.00 0.00 41 1015.3
20260506224006 21 88 16.1 24.1 0.00 0.00 0.00 42 1015.2
20260506223506 21 87 12.9 24.1 0.00 0.00 0.00 42 1015.2
20260506223006 21 77 11.3 20.9 0.00 0.00 0.00 42 1015.1
20260506222506 21 82 12.9 22.5 0.00 0.00 0.00 42 1015.0
20260506222006 21 76 12.9 22.5 0.00 0.00 0.00 42 1015.0
20260506221506 21 45 11.3 22.5 0.00 0.00 0.00 43 1014.9
20260506221006 21 36 9.7 22.5 0.00 0.00 0.00 41 1014.8
20260506220506 21 53 11.3 22.5 0.00 0.00 0.00 43 1014.8
20260506220006 21 54 14.5 25.7 0.00 0.00 0.00 43 1014.9
20260506215506 21 37 14.5 29.0 0.00 0.00 0.00 43 1014.9
20260506215006 20 23 11.3 29.0 0.00 0.00 0.00 45 1015.0
20260506214527 20 45 12.9 29.0 0.00 0.00 0.00 43 1015.0
20260506214006 20 64 14.5 29.0 0.00 0.00 0.00 42 1015.1
20260506213506 21 60 12.9 32.2 0.00 0.00 0.00 44 1015.1
20260506213006 21 57 11.3 32.2 0.00 0.00 0.00 44 1015.1
20260506212506 20 55 11.3 22.5 0.00 0.00 0.00 45 1015.2
20260506212006 20 43 12.9 33.8 0.00 0.00 0.00 45 1015.3
20260506211506 20 41 11.3 33.8 0.00 0.00 0.00 44 1015.3
20260506211006 20 29 6.4 33.8 0.00 0.00 0.00 46 1015.4
20260506210506 20 22 9.7 25.7 0.00 0.00 0.00 45 1015.4
20260506210006 20 34 16.1 32.2 0.00 0.00 0.00 46 1015.5
20260506205506 20 47 16.1 33.8 0.00 0.00 0.00 45 1015.6
20260506205006 20 47 12.9 33.8 0.00 0.00 0.00 47 1015.5
20260506204506 20 47 12.9 25.7 0.00 0.00 0.00 48 1015.7
20260506204006 20 57 11.3 25.7 0.00 0.00 0.00 47 1015.7
20260506203506 20 68 11.3 22.5 0.00 0.00 0.00 49 1015.8
20260506203006 20 66 12.9 25.7 0.00 0.00 0.00 48 1015.7
20260506202506 20 64 11.3 25.7 0.00 0.00 0.00 48 1015.9
20260506202006 20 52 11.3 24.1 0.00 0.00 0.00 51 1015.9
20260506201506 19 29 12.9 24.1 0.00 0.00 0.00 51 1015.9
20260506201006 18 32 12.9 25.7 0.00 0.00 0.00 51 1015.9
20260506200506 18 40 11.3 25.7 0.00 0.00 0.00 50 1016.0
20260506200006 18 27 12.9 24.1 0.00 0.00 0.00 52 1016.0
20260506195506 18 31 14.5 25.7 0.00 0.00 0.00 52 1016.0
20260506195006 18 49 12.9 27.4 0.00 0.00 0.00 54 1016.0
20260506194506 17 44 12.9 27.4 0.00 0.00 0.00 53 1016.0
20260506194006 17 28 14.5 25.7 0.00 0.00 0.00 53 1016.1
20260506193506 17 26 14.5 25.7 0.00 0.00 0.00 53 1016.2
20260506193006 17 31 12.9 24.1 0.00 0.00 0.00 53 1016.3
20260506192506 17 41 9.7 20.9 0.00 0.00 0.00 53 1016.3
20260506192006 17 42 11.3 25.7 0.00 0.00 0.00 54 1016.4
20260506191506 17 43 12.9 27.4 0.00 0.00 0.00 55 1016.3
20260506191027 17 47 12.9 27.4 0.00 0.00 0.00 54 1016.4
20260506190527 17 46 11.3 25.7 0.00 0.00 0.00 55 1016.4
20260506190006 17 43 11.3 25.7 0.00 0.00 0.00 52 1016.5
20260506185506 17 59 11.3 22.5 0.00 0.00 0.00 52 1016.5
20260506185006 17 79 12.9 24.1 0.00 0.00 0.00 53 1016.5
20260506184506 17 86 12.9 24.1 0.00 0.00 0.00 52 1016.5
20260506184027 17 75 12.9 20.9 0.00 0.00 0.00 52 1016.5
20260506183506 17 63 14.5 27.4 0.00 0.00 0.00 52 1016.7
20260506183027 17 63 12.9 27.4 0.00 0.00 0.00 51 1016.7
20260506182506 17 68 12.9 25.7 0.00 0.00 0.00 53 1016.7
20260506182006 17 70 14.5 29.0 0.00 0.00 0.00 52 1016.8
20260506181506 17 75 12.9 29.0 0.00 0.00 0.00 51 1016.9
20260506181006 17 77 11.3 24.1 0.00 0.00 0.00 52 1016.9
20260506180506 17 80 11.3 25.7 0.00 0.00 0.00 53 1016.9
20260506180006 17 67 12.9 27.4 0.00 0.00 0.00 51 1017.0
20260506175506 17 64 14.5 27.4 0.00 0.00 0.00 51 1017.0
20260506175006 17 70 14.5 25.7 0.00 0.00 0.00 53 1017.0
20260506174506 17 67 14.5 27.4 0.00 0.00 0.00 54 1017.0
20260506174006 17 66 12.9 27.4 0.00 0.00 0.00 53 1017.1
20260506173506 17 65 11.3 24.1 0.00 0.00 0.00 53 1017.2
20260506173027 17 61 12.9 25.7 0.00 0.00 0.00 54 1017.1
20260506172506 17 58 12.9 29.0 0.00 0.00 0.00 55 1017.2
20260506172006 17 53 14.5 29.0 0.00 0.00 0.00 54 1017.2
20260506171506 17 57 12.9 27.4 0.00 0.00 0.00 55 1017.1
20260506171006 17 64 16.1 25.7 0.00 0.00 0.00 56 1017.1
20260506170506 16 58 16.1 25.7 0.00 0.00 0.00 55 1017.1
20260506170027 16 51 16.1 27.4 0.00 0.00 0.00 54 1017.1
20260506165527 16 53 16.1 27.4 0.00 0.00 0.00 56 1017.2
20260506165027 16 63 14.5 24.1 0.00 0.00 0.00 55 1017.1
20260506164527 16 71 16.1 27.4 0.00 0.00 0.00 55 1017.2
20260506164027 16 70 19.3 29.0 0.00 0.00 0.00 53 1017.4
20260506163506 16 75 19.3 32.2 0.00 0.00 0.00 55 1017.3
20260506163006 16 77 17.7 32.2 0.00 0.00 0.00 55 1017.4
20260506162506 16 77 19.3 33.8 0.00 0.00 0.00 56 1017.6
20260506162027 16 75 19.3 33.8 0.00 0.00 0.00 56 1017.5
20260506161506 15 76 20.9 33.8 0.00 0.00 0.00 58 1017.5
20260506161006 15 76 20.9 33.8 0.00 0.00 0.00 57 1017.4
20260506160506 15 73 17.7 29.0 0.00 0.00 0.00 58 1017.3
20260506160005 14 72 17.7 33.8 0.00 0.00 0.00 60 1017.2
20260506155526 14 73 19.3 37.0 0.00 0.00 0.00 59 1017.2
20260506155005 14 73 19.3 37.0 0.00 0.00 0.00 60 1017.3
20260506154505 13 74 19.3 33.8 0.00 0.00 0.00 60 1017.2
20260506154026 13 74 22.5 33.8 0.00 0.00 0.00 60 1017.1
20260506153505 13 66 22.5 33.8 0.00 0.00 0.00 60 1017.0
20260506153005 13 62 19.3 32.2 0.00 0.00 0.00 61 1017.1
20260506152505 13 68 17.7 32.2 0.00 0.00 0.00 62 1017.1
20260506152005 13 68 16.1 27.4 0.00 0.00 0.00 64 1017.1
20260506151526 13 64 17.7 30.6 0.00 0.00 0.00 66 1017.1
20260506151005 12 71 19.3 32.2 0.00 0.00 0.00 66 1017.1
20260506150526 12 74 19.3 32.2 0.00 0.00 0.00 67 1017.1
20260506150026 12 70 19.3 30.6 0.00 0.00 0.00 68 1017.0
20260506145526 11 66 19.3 33.8 0.00 0.00 0.00 69 1017.1
20260506145005 11 64 17.7 30.6 0.00 0.00 0.00 71 1017.0
20260506144505 11 57 16.1 29.0 0.00 0.00 0.00 73 1016.9
20260506144005 11 54 16.1 32.2 0.00 0.00 0.00 73 1016.6
20260506143505 11 53 16.1 32.2 0.00 0.00 0.00 72 1016.5
20260506143005 11 50 14.5 29.0 0.00 0.00 0.00 74 1016.6
20260506142505 11 57 14.5 27.4 0.00 0.00 0.00 74 1016.5
20260506142005 11 59 14.5 29.0 0.00 0.00 0.00 74 1016.6
20260506141505 10 55 16.1 32.2 0.00 0.00 0.00 74 1016.6
20260506141005 10 57 17.7 32.2 0.00 0.00 0.00 74 1016.6
20260506140505 10 63 17.7 25.7 0.00 0.00 0.00 75 1016.5
20260506140005 10 60 16.1 27.4 0.00 0.00 0.00 76 1016.7
20260506135505 10 50 12.9 27.4 0.00 0.00 0.00 77 1016.7
20260506135005 10 44 11.3 22.5 0.00 0.00 0.00 78 1016.7
20260506134505 10 49 11.3 25.7 0.00 0.00 0.00 78 1016.7
20260506134005 10 46 12.9 27.4 0.00 0.00 0.00 79 1016.7
20260506133526 10 43 11.3 27.4 0.00 0.00 0.00 79 1016.7
20260506133005 10 44 11.3 27.4 0.00 0.00 0.00 79 1016.9
20260506132505 9 37 12.9 27.4 0.00 0.00 0.00 79 1017.0
20260506132005 9 32 12.9 24.1 0.00 0.00 0.00 80 1016.9
20260506131505 9 28 14.5 24.1 0.00 0.00 0.00 80 1016.8
20260506131005 9 31 14.5 27.4 0.00 0.00 0.00 80 1016.7
20260506130505 9 37 12.9 27.4 0.00 0.00 0.00 80 1016.6
20260506130005 9 36 12.9 24.1 0.00 0.00 0.00 80 1016.5
20260506125505 9 34 12.9 24.1 0.00 0.00 0.00 80 1016.6
20260506125005 9 35 11.3 22.5 0.00 0.00 0.00 81 1016.6
20260506124506 9 35 11.3 20.9 0.00 0.00 0.00 81 1016.5
20260506124026 9 33 12.9 22.5 0.00 0.00 0.00 81 1016.4
20260506123505 9 35 11.3 29.0 0.00 0.00 0.00 81 1016.3
20260506123026 9 37 12.9 29.0 0.00 0.00 0.00 81 1016.0
20260506122505 9 36 14.5 24.1 0.00 0.00 0.00 81 1016.0
20260506122005 8 42 12.9 25.7 0.00 0.00 0.00 81 1016.0
20260506121505 8 42 12.9 27.4 0.00 0.00 0.00 81 1015.8
20260506121026 8 40 14.5 29.0 0.00 0.00 0.00 81 1015.6
20260506120526 8 42 12.9 29.0 0.00 0.00 0.00 81 1015.6
20260506120005 8 37 14.5 25.7 0.00 0.00 0.00 81 1015.4
20260506115505 8 38 12.9 24.1 0.00 0.00 0.00 81 1015.5
20260506115005 8 43 11.3 24.1 0.00 0.00 0.00 81 1015.5
20260506114526 8 40 11.3 20.9 0.00 0.00 0.00 81 1015.5
20260506114005 8 38 9.7 20.9 0.00 0.00 0.00 81 1015.5
20260506113505 8 35 9.7 19.3 0.00 0.00 0.00 81 1015.3
20260506113005 8 33 9.7 19.3 0.00 0.00 0.00 81 1015.2
20260506112505 8 35 8.0 19.3 0.00 0.00 0.00 81 1015.3
20260506112005 8 30 9.7 20.9 0.00 0.00 0.00 80 1015.2
20260506111505 8 31 9.7 20.9 0.00 0.00 0.00 80 1014.9
20260506111005 8 34 8.0 20.9 0.00 0.00 0.00 80 1015.0
20260506110505 8 35 8.0 20.9 0.00 0.00 0.00 79 1015.0
20260506110005 9 39 8.0 17.7 0.00 0.00 0.00 79 1015.0
20260506105505 9 33 9.7 17.7 0.00 0.00 0.00 79 1014.9
20260506105005 9 25 12.9 24.1 0.00 0.00 0.00 79 1014.8
20260506104505 9 22 12.9 24.1 0.00 0.00 0.00 79 1015.5
20260506104005 9 20 8.0 20.9 0.00 0.00 0.00 79 1015.7
20260506103505 9 21 4.8 14.5 0.00 0.00 0.00 78 1015.9
20260506103026 9 32 4.8 12.9 0.00 0.00 0.00 78 1016.0
20260506102505 9 33 8.0 17.7 0.00 0.00 0.00 78 1015.8
20260506102005 9 41 8.0 17.7 0.00 0.00 0.00 78 1015.4
20260506101505 9 58 4.8 14.5 0.00 0.00 0.00 78 1015.4
20260506101005 9 40 6.4 17.7 0.00 0.00 0.00 78 1015.5
20260506100505 9 26 9.7 17.7 0.00 0.00 0.00 78 1015.4
20260506100005 9 20 9.7 17.7 0.00 0.00 0.00 78 1015.4
20260506095505 9 25 8.0 17.7 0.00 0.00 0.00 78 1015.3
20260506095005 9 23 11.3 22.5 0.00 0.00 0.00 77 1015.3
20260506094526 9 21 11.3 22.5 0.00 0.00 0.00 77 1015.0
20260506094005 9 25 11.3 17.7 0.00 0.00 0.00 77 1014.9
20260506093526 9 30 8.0 17.7 0.00 0.00 0.00 77 1014.6
20260506093005 9 26 9.7 25.7 0.00 0.00 0.00 77 1014.5
20260506092505 9 25 11.3 25.7 0.00 0.00 0.00 77 1014.4
20260506092005 9 27 11.3 24.1 0.00 0.00 0.00 76 1014.3
20260506091505 9 23 12.9 22.5 0.00 0.00 0.00 76 1014.3
20260506091005 9 23 0.0 22.5 0.00 0.00 0.00 76 1014.3
20260506090505 9 23 14.5 20.9 0.00 0.00 0.00 75 1014.2
20260506090005 9 20 14.5 20.9 0.00 0.00 0.00 75 1014.1
20260506085505 9 23 14.5 20.9 0.00 0.00 0.00 75 1014.2
20260506085005 9 23 14.5 20.9 0.00 0.00 0.00 75 1014.2
20260506084505 9 20 14.5 24.1 0.00 0.00 0.00 74 1014.1
20260506084005 9 18 14.5 24.1 0.00 0.00 0.00 74 1014.2
20260506083505 9 18 9.7 24.1 0.00 0.00 0.00 74 1014.1
20260506083026 9 17 9.7 20.9 0.00 0.00 0.00 74 1013.9
20260506082526 9 20 14.5 22.5 0.00 0.00 0.00 74 1013.6
20260506082005 9 23 12.9 22.5 0.00 0.00 0.00 74 1013.4
20260506081505 9 22 14.5 24.1 0.00 0.00 0.00 74 1013.3
20260506081005 9 21 14.5 24.1 0.00 0.00 0.00 74 1013.4
20260506080526 9 22 12.9 24.1 0.00 0.00 0.00 74 1013.4
20260506073505 9 63 8.0 17.7 0.00 0.00 0.00 73 1013.0
20260506073005 9 54 8.0 19.3 0.00 0.00 0.00 73 1012.9
20260506072505 9 46 8.0 19.3 0.00 0.00 0.00 73 1012.8
20260506072005 9 48 8.0 17.7 0.00 0.00 0.00 73 1012.7
20260506071526 9 54 9.7 17.7 0.00 0.00 0.00 73 1012.6
20260506071005 9 50 8.0 17.7 0.00 0.00 0.00 73 1012.6
20260506070505 10 47 6.4 17.7 0.00 0.00 0.00 73 1012.6
20260506062505 10 50 4.8 19.3 0.00 0.00 0.00 72 1012.9
20260506062005 10 59 4.8 16.1 0.00 0.00 0.00 72 1012.9
20260506061505 10 57 6.4 16.1 0.00 0.00 0.00 72 1012.9
20260506061026 10 54 6.4 17.7 0.00 0.00 0.00 72 1012.9
20260506060505 10 51 6.4 17.7 0.00 0.00 0.00 72 1012.7
20260506051005 10 45 8.0 24.1 0.00 0.00 0.00 72 1012.8
20260506050505 10 51 9.7 19.3 0.00 0.00 0.00 71 1012.5
20260506045005 10 53 9.7 25.7 0.00 0.00 0.00 71 1012.7